date,time,SUV Intensity [MED/Hr],UV Index,Daily total [MED],Since Last [MED]
16/06/2023,00:03:01,-0.001,0.0,0.0,0.0
16/06/2023,00:04:01,0.000,0.0,0.0,0.0
16/06/2023,00:05:02,0.000,0.0,0.0,0.0
16/06/2023,00:06:01,-0.001,0.0,0.0,0.0
16/06/2023,00:07:02,0.000,0.0,0.0,0.0
16/06/2023,00:08:02,0.000,0.0,0.0,0.0
16/06/2023,00:09:01,0.000,0.0,0.0,0.0
16/06/2023,00:10:02,0.001,0.0,0.0,0.0
16/06/2023,00:11:02,0.000,0.0,0.0,0.0
16/06/2023,00:12:01,-0.001,0.0,0.0,0.0
16/06/2023,00:13:07,0.001,0.0,0.0,0.0
16/06/2023,00:14:02,-0.001,0.0,0.0,0.0
16/06/2023,00:15:01,0.001,0.0,0.0,0.0
16/06/2023,00:16:02,0.000,0.0,0.0,0.0
16/06/2023,00:17:05,0.000,0.0,0.0,0.0
16/06/2023,00:18:02,0.000,0.0,0.0,0.0
16/06/2023,00:19:02,0.000,0.0,0.0,0.0
16/06/2023,00:20:01,0.000,0.0,0.0,0.0
16/06/2023,00:21:02,0.001,0.0,0.0,0.0
16/06/2023,00:22:01,-0.000,0.0,0.0,0.0
16/06/2023,00:23:01,0.000,0.0,0.0,0.0
16/06/2023,00:24:02,0.001,0.0,0.0,0.0
16/06/2023,00:25:02,0.000,0.0,0.0,0.0
16/06/2023,00:26:02,0.001,0.0,0.0,0.0
16/06/2023,00:27:01,0.001,0.0,0.0,0.0
16/06/2023,00:28:02,0.001,0.0,0.0,0.0
16/06/2023,00:29:01,0.001,0.0,0.0,0.0
16/06/2023,00:30:02,0.001,0.0,0.0,0.0
16/06/2023,00:31:02,0.000,0.0,0.0,0.0
16/06/2023,00:32:01,0.001,0.0,0.0,0.0
16/06/2023,00:33:03,0.001,0.0,0.0,0.0
16/06/2023,00:34:01,0.000,0.0,0.0,0.0
16/06/2023,00:35:01,0.001,0.0,0.0,0.0
16/06/2023,00:36:01,0.001,0.0,0.0,0.0
16/06/2023,00:37:02,0.001,0.0,0.0,0.0
16/06/2023,00:38:02,0.001,0.0,0.0,0.0
16/06/2023,00:39:02,0.001,0.0,0.0,0.0
16/06/2023,00:40:02,0.000,0.0,0.0,0.0
16/06/2023,00:41:01,0.001,0.0,0.0,0.0
16/06/2023,00:42:02,0.001,0.0,0.0,0.0
16/06/2023,00:43:02,0.001,0.0,0.0,0.0
16/06/2023,00:44:01,0.001,0.0,0.0,0.0
16/06/2023,00:45:02,0.001,0.0,0.0,0.0
16/06/2023,00:46:02,0.000,0.0,0.0,0.0
16/06/2023,00:47:01,0.001,0.0,0.0,0.0
16/06/2023,00:48:02,0.001,0.0,0.0,0.0
16/06/2023,00:49:02,0.000,0.0,0.0,0.0
16/06/2023,00:50:02,0.001,0.0,0.0,0.0
16/06/2023,00:51:01,0.000,0.0,0.0,0.0
16/06/2023,00:52:02,0.000,0.0,0.0,0.0
16/06/2023,00:53:01,0.001,0.0,0.0,0.0
16/06/2023,00:54:01,0.000,0.0,0.0,0.0
16/06/2023,00:55:02,0.000,0.0,0.0,0.0
16/06/2023,00:56:02,0.000,0.0,0.0,0.0
16/06/2023,00:57:01,0.001,0.0,0.0,0.0
16/06/2023,00:58:02,0.000,0.0,0.0,0.0
16/06/2023,00:59:02,0.000,0.0,0.0,0.0
16/06/2023,01:00:01,0.000,0.0,0.0,0.0
16/06/2023,01:01:02,0.001,0.0,0.0,0.0
16/06/2023,01:02:01,0.000,0.0,0.0,0.0
16/06/2023,01:03:01,0.001,0.0,0.0,0.0
16/06/2023,01:04:01,-0.000,0.0,0.0,0.0
16/06/2023,01:05:02,0.001,0.0,0.0,0.0
16/06/2023,01:06:02,0.001,0.0,0.0,0.0
16/06/2023,01:07:01,0.001,0.0,0.0,0.0
16/06/2023,01:08:02,0.001,0.0,0.0,0.0
16/06/2023,01:09:02,0.001,0.0,0.0,0.0
16/06/2023,01:10:01,0.001,0.0,0.0,0.0
16/06/2023,01:11:02,0.001,0.0,0.0,0.0
16/06/2023,01:12:01,0.001,0.0,0.0,0.0
16/06/2023,01:13:02,0.001,0.0,0.0,0.0
16/06/2023,01:14:01,-0.000,0.0,0.0,0.0
16/06/2023,01:15:01,0.000,0.0,0.0,0.0
16/06/2023,01:16:02,0.001,0.0,0.0,0.0
16/06/2023,01:17:01,0.001,0.0,0.0,0.0
16/06/2023,01:18:02,0.001,0.0,0.0,0.0
16/06/2023,01:19:01,0.001,0.0,0.0,0.0
16/06/2023,01:20:01,0.001,0.0,0.0,0.0
16/06/2023,01:21:02,0.001,0.0,0.0,0.0
16/06/2023,01:22:01,0.001,0.0,0.0,0.0
16/06/2023,01:23:01,0.001,0.0,0.0,0.0
16/06/2023,01:24:02,0.001,0.0,0.0,0.0
16/06/2023,01:25:01,0.001,0.0,0.0,0.0
16/06/2023,01:26:02,0.001,0.0,0.0,0.0
16/06/2023,01:27:02,0.001,0.0,0.0,0.0
16/06/2023,01:28:02,0.001,0.0,0.0,0.0
16/06/2023,01:29:02,0.001,0.0,0.0,0.0
16/06/2023,01:30:02,0.001,0.0,0.0,0.0
16/06/2023,01:31:02,0.002,0.0,0.0,0.0
16/06/2023,01:32:01,0.001,0.0,0.0,0.0
16/06/2023,01:33:02,0.001,0.0,0.0,0.0
16/06/2023,01:34:02,0.001,0.0,0.0,0.0
16/06/2023,01:35:01,0.001,0.0,0.0,0.0
16/06/2023,01:36:01,0.001,0.0,0.0,0.0
16/06/2023,01:37:02,0.001,0.0,0.0,0.0
16/06/2023,01:38:02,0.001,0.0,0.0,0.0
16/06/2023,01:39:01,0.001,0.0,0.0,0.0
16/06/2023,01:40:02,0.001,0.0,0.0,0.0
16/06/2023,01:41:01,0.001,0.0,0.0,0.0
16/06/2023,01:42:02,0.001,0.0,0.0,0.0
16/06/2023,01:43:01,0.001,0.0,0.0,0.0
16/06/2023,01:44:02,0.001,0.0,0.0,0.0
16/06/2023,01:45:02,0.001,0.0,0.0,0.0
16/06/2023,01:46:01,0.001,0.0,0.0,0.0
16/06/2023,01:47:02,0.001,0.0,0.0,0.0
16/06/2023,01:48:01,0.001,0.0,0.0,0.0
16/06/2023,01:49:02,0.001,0.0,0.0,0.0
16/06/2023,01:50:02,0.001,0.0,0.0,0.0
16/06/2023,01:51:02,0.001,0.0,0.0,0.0
16/06/2023,01:52:01,0.001,0.0,0.0,0.0
16/06/2023,01:53:02,0.001,0.0,0.0,0.0
16/06/2023,01:54:02,0.001,0.0,0.0,0.0
16/06/2023,01:55:01,0.001,0.0,0.0,0.0
16/06/2023,01:56:01,0.001,0.0,0.0,0.0
16/06/2023,01:57:01,0.001,0.0,0.0,0.0
16/06/2023,01:58:03,0.001,0.0,0.0,0.0
16/06/2023,01:59:03,0.002,0.0,0.0,0.0
16/06/2023,02:00:01,0.001,0.0,0.0,0.0
16/06/2023,02:01:02,0.002,0.0,0.0,0.0
16/06/2023,02:02:02,0.001,0.0,0.0,0.0
16/06/2023,02:03:02,0.001,0.0,0.0,0.0
16/06/2023,02:04:01,0.001,0.0,0.0,0.0
16/06/2023,02:05:02,0.001,0.0,0.0,0.0
16/06/2023,02:06:02,0.001,0.0,0.0,0.0
16/06/2023,02:07:02,0.001,0.0,0.0,0.0
16/06/2023,02:08:02,0.001,0.0,0.0,0.0
16/06/2023,02:09:01,0.001,0.0,0.0,0.0
16/06/2023,02:10:02,0.001,0.0,0.0,0.0
16/06/2023,02:11:02,0.002,0.0,0.0,0.0
16/06/2023,02:12:02,0.001,0.0,0.0,0.0
16/06/2023,02:13:01,0.002,0.0,0.0,0.0
16/06/2023,02:14:02,0.001,0.0,0.0,0.0
16/06/2023,02:15:01,0.002,0.0,0.0,0.0
16/06/2023,02:16:02,0.001,0.0,0.0,0.0
16/06/2023,02:17:01,0.001,0.0,0.0,0.0
16/06/2023,02:18:02,0.002,0.0,0.0,0.0
16/06/2023,02:19:02,0.002,0.0,0.0,0.0
16/06/2023,02:20:02,0.002,0.0,0.0,0.0
16/06/2023,02:21:02,0.001,0.0,0.0,0.0
16/06/2023,02:22:02,0.002,0.0,0.0,0.0
16/06/2023,02:23:01,0.001,0.0,0.0,0.0
16/06/2023,02:24:02,0.001,0.0,0.0,0.0
16/06/2023,02:25:02,0.001,0.0,0.0,0.0
16/06/2023,02:26:01,0.001,0.0,0.0,0.0
16/06/2023,02:27:01,0.002,0.0,0.0,0.0
16/06/2023,02:28:02,0.002,0.0,0.0,0.0
16/06/2023,02:29:02,0.002,0.0,0.0,0.0
16/06/2023,02:30:01,0.002,0.0,0.0,0.0
16/06/2023,02:31:02,0.002,0.0,0.0,0.0
16/06/2023,02:32:02,0.002,0.0,0.0,0.0
16/06/2023,02:33:02,0.002,0.0,0.0,0.0
16/06/2023,02:34:01,0.001,0.0,0.0,0.0
16/06/2023,02:35:02,0.001,0.0,0.0,0.0
16/06/2023,02:36:02,0.002,0.0,0.0,0.0
16/06/2023,02:37:02,0.002,0.0,0.0,0.0
16/06/2023,02:38:02,0.002,0.0,0.0,0.0
16/06/2023,02:39:01,0.002,0.0,0.0,0.0
16/06/2023,02:40:02,0.001,0.0,0.0,0.0
16/06/2023,02:41:02,0.002,0.0,0.0,0.0
16/06/2023,02:42:01,0.001,0.0,0.0,0.0
16/06/2023,02:43:02,0.002,0.0,0.0,0.0
16/06/2023,02:44:02,0.002,0.0,0.0,0.0
16/06/2023,02:45:02,0.002,0.0,0.0,0.0
16/06/2023,02:46:02,0.002,0.0,0.0,0.0
16/06/2023,02:47:03,0.003,0.0,0.0,0.0
16/06/2023,02:48:02,0.002,0.0,0.0,0.0
16/06/2023,02:49:02,0.002,0.0,0.0,0.0
16/06/2023,02:50:02,0.003,0.0,0.0,0.0
16/06/2023,02:51:02,0.001,0.0,0.0,0.0
16/06/2023,02:52:02,0.002,0.0,0.0,0.0
16/06/2023,02:53:02,0.002,0.0,0.0,0.0
16/06/2023,02:54:02,0.003,0.0,0.0,0.0
16/06/2023,02:55:02,0.001,0.0,0.0,0.0
16/06/2023,02:56:02,0.001,0.0,0.0,0.0
16/06/2023,02:57:02,0.001,0.0,0.0,0.0
16/06/2023,02:58:01,0.002,0.0,0.0,0.0
16/06/2023,02:59:02,0.001,0.0,0.0,0.0
16/06/2023,03:00:02,0.002,0.0,0.0,0.0
16/06/2023,03:01:01,0.002,0.0,0.0,0.0
16/06/2023,03:02:02,0.001,0.0,0.0,0.0
16/06/2023,03:03:02,0.002,0.0,0.0,0.0
16/06/2023,03:04:01,0.002,0.0,0.0,0.0
16/06/2023,03:05:02,0.002,0.0,0.0,0.0
16/06/2023,03:06:02,0.002,0.0,0.0,0.0
16/06/2023,03:07:01,0.002,0.0,0.0,0.0
16/06/2023,03:08:02,0.002,0.0,0.0,0.0
16/06/2023,03:09:01,0.002,0.0,0.0,0.0
16/06/2023,03:10:02,0.001,0.0,0.0,0.0
16/06/2023,03:11:02,0.002,0.0,0.0,0.0
16/06/2023,03:12:01,0.002,0.0,0.0,0.0
16/06/2023,03:13:02,0.001,0.0,0.0,0.0
16/06/2023,03:14:02,0.002,0.0,0.0,0.0
16/06/2023,03:15:02,0.002,0.0,0.0,0.0
16/06/2023,03:16:01,0.002,0.0,0.0,0.0
16/06/2023,03:17:02,0.001,0.0,0.0,0.0
16/06/2023,03:18:02,0.002,0.0,0.0,0.0
16/06/2023,03:19:02,0.002,0.0,0.0,0.0
16/06/2023,03:20:02,0.002,0.0,0.0,0.0
16/06/2023,03:21:02,0.002,0.0,0.0,0.0
16/06/2023,03:22:02,0.002,0.0,0.0,0.0
16/06/2023,03:23:02,0.002,0.0,0.0,0.0
16/06/2023,03:24:02,0.002,0.0,0.0,0.0
16/06/2023,03:25:02,0.001,0.0,0.0,0.0
16/06/2023,03:26:02,0.002,0.0,0.0,0.0
16/06/2023,03:27:02,0.003,0.0,0.0,0.0
16/06/2023,03:28:02,0.003,0.0,0.0,0.0
16/06/2023,03:29:01,0.002,0.0,0.0,0.0
16/06/2023,03:30:02,0.003,0.0,0.0,0.0
16/06/2023,03:31:01,0.002,0.0,0.0,0.0
16/06/2023,03:32:02,0.003,0.0,0.0,0.0
16/06/2023,03:33:02,0.004,0.0,0.0,0.0
16/06/2023,03:34:02,0.003,0.0,0.0,0.0
16/06/2023,03:35:02,0.002,0.0,0.0,0.0
16/06/2023,03:36:02,0.002,0.0,0.0,0.0
16/06/2023,03:37:01,0.003,0.0,0.0,0.0
16/06/2023,03:38:02,0.003,0.0,0.0,0.0
16/06/2023,03:39:02,0.003,0.0,0.0,0.0
16/06/2023,03:40:02,0.003,0.0,0.0,0.0
16/06/2023,03:41:02,0.003,0.0,0.0,0.0
16/06/2023,03:42:02,0.003,0.0,0.0,0.0
16/06/2023,03:43:02,0.003,0.0,0.0,0.0
16/06/2023,03:44:02,0.004,0.0,0.0,0.0
16/06/2023,03:45:02,0.004,0.0,0.0,0.0
16/06/2023,03:46:02,0.004,0.0,0.0,0.0
16/06/2023,03:47:02,0.004,0.0,0.0,0.0
16/06/2023,03:48:02,0.004,0.0,0.0,0.0
16/06/2023,03:49:01,0.004,0.0,0.0,0.0
16/06/2023,03:50:02,0.003,0.0,0.0,0.0
16/06/2023,03:51:02,0.004,0.0,0.0,0.0
16/06/2023,03:52:31,0.005,0.0,0.0,0.0
16/06/2023,03:54:02,0.005,0.0,0.0,0.0
16/06/2023,03:55:02,0.005,0.0,0.0,0.0
16/06/2023,03:56:02,0.005,0.0,0.0,0.0
16/06/2023,03:57:01,0.005,0.0,0.0,0.0
16/06/2023,03:58:04,0.005,0.0,0.0,0.0
16/06/2023,03:59:02,0.006,0.0,0.0,0.0
16/06/2023,04:00:02,0.005,0.0,0.0,0.0
16/06/2023,04:01:02,0.006,0.0,0.0,0.0
16/06/2023,04:02:02,0.006,0.0,0.0,0.0
16/06/2023,04:03:02,0.006,0.0,0.0,0.0
16/06/2023,04:04:02,0.006,0.0,0.0,0.0
16/06/2023,04:05:01,0.007,0.0,0.0,0.0
16/06/2023,04:06:02,0.007,0.0,0.0,0.0
16/06/2023,04:07:01,0.008,0.0,0.001,0.001
16/06/2023,04:08:02,0.007,0.0,0.001,0.0
16/06/2023,04:09:02,0.007,0.0,0.001,0.0
16/06/2023,04:10:02,0.008,0.0,0.001,0.0
16/06/2023,04:11:02,0.008,0.0,0.001,0.0
16/06/2023,04:12:02,0.008,0.0,0.001,0.0
16/06/2023,04:13:02,0.009,0.0,0.001,0.0
16/06/2023,04:14:02,0.009,0.0,0.001,0.0
16/06/2023,04:15:02,0.009,0.0,0.002,0.001
16/06/2023,04:16:02,0.009,0.0,0.002,0.0
16/06/2023,04:17:02,0.010,0.0,0.002,0.0
16/06/2023,04:18:02,0.011,0.0,0.002,0.0
16/06/2023,04:19:02,0.010,0.0,0.002,0.0
16/06/2023,04:20:02,0.011,0.0,0.002,0.0
16/06/2023,04:21:02,0.010,0.0,0.003,0.001
16/06/2023,04:22:02,0.011,0.0,0.003,0.0
16/06/2023,04:23:02,0.012,0.0,0.003,0.0
16/06/2023,04:24:02,0.011,0.0,0.003,0.0
16/06/2023,04:25:02,0.014,0.0,0.003,0.0
16/06/2023,04:26:02,0.013,0.0,0.004,0.001
16/06/2023,04:27:02,0.014,0.0,0.004,0.0
16/06/2023,04:28:01,0.013,0.0,0.004,0.0
16/06/2023,04:29:01,0.014,0.0,0.004,0.0
16/06/2023,04:30:01,0.014,0.0,0.005,0.001
16/06/2023,04:31:02,0.015,0.0,0.005,0.0
16/06/2023,04:32:02,0.014,0.0,0.005,0.0
16/06/2023,04:33:02,0.016,0.0,0.005,0.0
16/06/2023,04:34:02,0.016,0.0,0.006,0.001
16/06/2023,04:35:02,0.016,0.0,0.006,0.0
16/06/2023,04:36:02,0.017,0.0,0.006,0.0
16/06/2023,04:37:02,0.017,0.0,0.006,0.0
16/06/2023,04:38:01,0.018,0.0,0.007,0.001
16/06/2023,04:39:02,0.018,0.0,0.007,0.0
16/06/2023,04:40:02,0.019,0.0,0.007,0.0
16/06/2023,04:41:02,0.018,0.0,0.008,0.001
16/06/2023,04:42:02,0.020,0.0,0.008,0.0
16/06/2023,04:43:02,0.021,0.0,0.008,0.0
16/06/2023,04:44:02,0.021,0.0,0.009,0.001
16/06/2023,04:45:02,0.022,0.0,0.009,0.0
16/06/2023,04:46:02,0.023,0.0,0.009,0.0
16/06/2023,04:47:02,0.023,0.0,0.01,0.001
16/06/2023,04:48:02,0.023,0.0,0.01,0.0
16/06/2023,04:49:02,0.024,0.0,0.011,0.001
16/06/2023,04:50:02,0.024,0.0,0.011,0.0
16/06/2023,04:51:02,0.025,0.0,0.011,0.0
16/06/2023,04:52:02,0.026,0.0,0.012,0.001
16/06/2023,04:53:02,0.027,0.0,0.012,0.0
16/06/2023,04:54:02,0.028,0.0,0.013,0.001
16/06/2023,04:55:02,0.028,0.0,0.013,0.0
16/06/2023,04:56:02,0.029,0.0,0.014,0.001
16/06/2023,04:57:01,0.030,0.0,0.014,0.0
16/06/2023,04:58:02,0.030,0.0,0.015,0.001
16/06/2023,04:59:02,0.031,0.0,0.015,0.0
16/06/2023,05:00:02,0.032,0.0,0.016,0.001
16/06/2023,05:01:02,0.032,0.0,0.016,0.0
16/06/2023,05:02:02,0.033,0.0,0.017,0.001
16/06/2023,05:03:02,0.034,0.0,0.017,0.0
16/06/2023,05:04:02,0.035,0.0,0.018,0.001
16/06/2023,05:05:02,0.036,0.0,0.018,0.0
16/06/2023,05:06:02,0.037,0.0,0.019,0.001
16/06/2023,05:07:01,0.038,0.0,0.02,0.001
16/06/2023,05:08:02,0.039,0.0,0.02,0.0
16/06/2023,05:09:02,0.040,0.0,0.021,0.001
16/06/2023,05:10:02,0.039,0.0,0.022,0.001
16/06/2023,05:11:02,0.042,0.0,0.022,0.0
16/06/2023,05:12:02,0.042,0.0,0.023,0.001
16/06/2023,05:13:02,0.044,0.0,0.024,0.001
16/06/2023,05:14:02,0.044,0.0,0.024,0.0
16/06/2023,05:15:02,0.045,0.0,0.025,0.001
16/06/2023,05:16:02,0.046,0.0,0.026,0.001
16/06/2023,05:17:01,0.048,0.0,0.027,0.001
16/06/2023,05:18:02,0.049,0.0,0.028,0.001
16/06/2023,05:19:02,0.050,0.0,0.028,0.0
16/06/2023,05:20:01,0.051,0.0,0.029,0.001
16/06/2023,05:21:24,0.051,0.0,0.03,0.001
16/06/2023,05:23:03,0.054,0.0,0.032,0.002
16/06/2023,05:24:03,0.055,0.0,0.033,0.001
16/06/2023,05:25:02,0.057,0.0,0.034,0.001
16/06/2023,05:26:01,0.058,0.0,0.035,0.001
16/06/2023,05:27:02,0.059,0.0,0.036,0.001
16/06/2023,05:28:02,0.060,0.0,0.037,0.001
16/06/2023,05:29:02,0.062,0.0,0.038,0.001
16/06/2023,05:30:02,0.064,0.0,0.039,0.001
16/06/2023,05:31:02,0.065,0.0,0.04,0.001
16/06/2023,05:32:02,0.065,0.0,0.041,0.001
16/06/2023,05:33:02,0.067,0.0,0.042,0.001
16/06/2023,05:34:02,0.069,0.0,0.043,0.001
16/06/2023,05:35:02,0.070,0.0,0.044,0.001
16/06/2023,05:36:02,0.071,0.0,0.045,0.001
16/06/2023,05:37:02,0.073,0.0,0.047,0.002
16/06/2023,05:38:02,0.075,0.0,0.048,0.001
16/06/2023,05:39:02,0.076,0.0,0.049,0.001
16/06/2023,05:40:02,0.078,0.0,0.05,0.001
16/06/2023,05:41:03,0.079,0.0,0.052,0.002
16/06/2023,05:42:02,0.081,0.0,0.053,0.001
16/06/2023,05:43:03,0.082,0.0,0.054,0.001
16/06/2023,05:44:02,0.084,0.0,0.056,0.002
16/06/2023,05:45:02,0.086,0.0,0.057,0.001
16/06/2023,05:46:03,0.087,0.0,0.059,0.002
16/06/2023,05:47:02,0.089,0.0,0.06,0.001
16/06/2023,05:48:02,0.090,0.0,0.062,0.002
16/06/2023,05:49:02,0.092,0.0,0.063,0.001
16/06/2023,05:50:02,0.094,0.0,0.065,0.002
16/06/2023,05:51:02,0.096,0.0,0.066,0.001
16/06/2023,05:52:03,0.098,0.0,0.068,0.002
16/06/2023,05:53:03,0.100,0.0,0.069,0.001
16/06/2023,05:54:02,0.102,0.0,0.071,0.002
16/06/2023,05:55:02,0.104,0.0,0.073,0.002
16/06/2023,05:56:02,0.105,0.0,0.075,0.002
16/06/2023,05:57:02,0.107,0.0,0.076,0.001
16/06/2023,05:58:02,0.110,0.0,0.078,0.002
16/06/2023,05:59:02,0.112,0.0,0.08,0.002
16/06/2023,06:00:02,0.114,0.0,0.082,0.002
16/06/2023,06:01:02,0.116,0.0,0.084,0.002
16/06/2023,06:02:03,0.119,0.0,0.086,0.002
16/06/2023,06:03:02,0.120,0.0,0.088,0.002
16/06/2023,06:04:02,0.123,0.0,0.09,0.002
16/06/2023,06:05:02,0.126,0.0,0.092,0.002
16/06/2023,06:06:02,0.128,0.0,0.094,0.002
16/06/2023,06:07:02,0.131,0.0,0.096,0.002
16/06/2023,06:08:02,0.132,0.0,0.098,0.002
16/06/2023,06:09:02,0.135,0.0,0.101,0.003
16/06/2023,06:10:02,0.138,0.0,0.103,0.002
16/06/2023,06:11:02,0.140,0.0,0.105,0.002
16/06/2023,06:12:02,0.144,0.0,0.108,0.003
16/06/2023,06:13:02,0.145,0.0,0.11,0.002
16/06/2023,06:14:03,0.148,0.0,0.113,0.003
16/06/2023,06:15:02,0.150,0.0,0.115,0.002
16/06/2023,06:16:01,0.152,0.0,0.117,0.002
16/06/2023,06:17:03,0.156,0.0,0.12,0.003
16/06/2023,06:18:02,0.158,0.0,0.123,0.003
16/06/2023,06:19:02,0.160,0.0,0.125,0.002
16/06/2023,06:20:02,0.163,0.0,0.128,0.003
16/06/2023,06:21:03,0.167,0.0,0.131,0.003
16/06/2023,06:22:02,0.170,0.0,0.134,0.003
16/06/2023,06:23:03,0.172,0.0,0.136,0.002
16/06/2023,06:24:02,0.175,0.0,0.139,0.003
16/06/2023,06:25:03,0.177,0.0,0.142,0.003
16/06/2023,06:26:02,0.181,0.0,0.145,0.003
16/06/2023,06:27:02,0.184,0.0,0.148,0.003
16/06/2023,06:28:02,0.188,0.0,0.151,0.003
16/06/2023,06:29:02,0.190,0.0,0.155,0.004
16/06/2023,06:30:01,0.193,0.0,0.158,0.003
16/06/2023,06:31:02,0.196,0.0,0.161,0.003
16/06/2023,06:32:02,0.199,0.0,0.164,0.003
16/06/2023,06:33:03,0.203,0.0,0.168,0.004
16/06/2023,06:34:02,0.207,0.0,0.171,0.003
16/06/2023,06:35:02,0.209,0.0,0.175,0.004
16/06/2023,06:36:02,0.214,0.0,0.178,0.003
16/06/2023,06:37:03,0.217,0.0,0.182,0.004
16/06/2023,06:38:02,0.221,1.0,0.185,0.003
16/06/2023,06:39:02,0.224,1.0,0.189,0.004
16/06/2023,06:40:02,0.227,1.0,0.193,0.004
16/06/2023,06:41:02,0.231,1.0,0.197,0.004
16/06/2023,06:42:02,0.235,1.0,0.2,0.003
16/06/2023,06:43:02,0.238,1.0,0.204,0.004
16/06/2023,06:44:02,0.242,1.0,0.208,0.004
16/06/2023,06:45:02,0.245,1.0,0.212,0.004
16/06/2023,06:46:02,0.249,1.0,0.217,0.005
16/06/2023,06:47:02,0.252,1.0,0.221,0.004
16/06/2023,06:48:02,0.257,1.0,0.225,0.004
16/06/2023,06:49:02,0.260,1.0,0.229,0.004
16/06/2023,06:50:03,0.264,1.0,0.234,0.005
16/06/2023,06:51:02,0.268,1.0,0.238,0.004
16/06/2023,06:52:02,0.272,1.0,0.243,0.005
16/06/2023,06:53:02,0.275,1.0,0.247,0.004
16/06/2023,06:54:02,0.280,1.0,0.252,0.005
16/06/2023,06:55:03,0.285,1.0,0.257,0.005
16/06/2023,06:56:02,0.289,1.0,0.261,0.004
16/06/2023,06:57:02,0.293,1.0,0.266,0.005
16/06/2023,06:58:03,0.297,1.0,0.271,0.005
16/06/2023,06:59:02,0.301,1.0,0.276,0.005
16/06/2023,07:00:02,0.306,1.0,0.281,0.005
16/06/2023,07:01:02,0.310,1.0,0.286,0.005
16/06/2023,07:02:02,0.313,1.0,0.291,0.005
16/06/2023,07:03:02,0.319,1.0,0.297,0.006
16/06/2023,07:04:02,0.323,1.0,0.302,0.005
16/06/2023,07:05:02,0.329,1.0,0.308,0.006
16/06/2023,07:06:02,0.333,1.0,0.313,0.005
16/06/2023,07:07:03,0.338,1.0,0.319,0.006
16/06/2023,07:08:02,0.344,1.0,0.324,0.005
16/06/2023,07:09:03,0.348,1.0,0.33,0.006
16/06/2023,07:10:02,0.353,1.0,0.336,0.006
16/06/2023,07:11:02,0.357,1.0,0.342,0.006
16/06/2023,07:12:02,0.362,1.0,0.348,0.006
16/06/2023,07:13:03,0.367,1.0,0.354,0.006
16/06/2023,07:14:02,0.373,1.0,0.36,0.006
16/06/2023,07:15:03,0.379,1.0,0.366,0.006
16/06/2023,07:16:02,0.384,1.0,0.373,0.007
16/06/2023,07:17:03,0.388,1.0,0.379,0.006
16/06/2023,07:18:02,0.395,1.0,0.386,0.007
16/06/2023,07:19:02,0.398,1.0,0.392,0.006
16/06/2023,07:20:02,0.404,1.0,0.399,0.007
16/06/2023,07:21:02,0.410,1.0,0.406,0.007
16/06/2023,07:22:02,0.414,1.0,0.413,0.007
16/06/2023,07:23:03,0.418,1.0,0.419,0.006
16/06/2023,07:24:03,0.425,1.0,0.427,0.008
16/06/2023,07:25:02,0.430,1.0,0.434,0.007
16/06/2023,07:26:02,0.435,1.0,0.441,0.007
16/06/2023,07:27:02,0.439,1.0,0.448,0.007
16/06/2023,07:28:02,0.446,1.0,0.456,0.008
16/06/2023,07:29:03,0.451,1.0,0.463,0.007
16/06/2023,07:30:02,0.456,1.0,0.471,0.008
16/06/2023,07:31:03,0.461,1.0,0.478,0.007
16/06/2023,07:32:01,0.467,1.0,0.486,0.008
16/06/2023,07:33:02,0.472,1.0,0.494,0.008
16/06/2023,07:34:03,0.477,1.0,0.502,0.008
16/06/2023,07:35:02,0.483,1.0,0.51,0.008
16/06/2023,07:36:02,0.491,1.0,0.518,0.008
16/06/2023,07:37:02,0.496,1.0,0.526,0.008
16/06/2023,07:38:02,0.503,1.0,0.534,0.008
16/06/2023,07:39:02,0.509,1.0,0.543,0.009
16/06/2023,07:40:02,0.511,1.0,0.551,0.008
16/06/2023,07:41:03,0.518,1.0,0.56,0.009
16/06/2023,07:42:02,0.525,1.0,0.568,0.008
16/06/2023,07:43:03,0.532,1.0,0.577,0.009
16/06/2023,07:44:05,0.537,1.0,0.586,0.009
16/06/2023,07:45:03,0.541,1.0,0.595,0.009
16/06/2023,07:46:03,0.547,1.0,0.604,0.009
16/06/2023,07:47:02,0.556,1.0,0.613,0.009
16/06/2023,07:48:02,0.561,1.0,0.623,0.01
16/06/2023,07:49:02,0.569,1.0,0.632,0.009
16/06/2023,07:50:03,0.576,1.0,0.642,0.01
16/06/2023,07:51:02,0.582,1.0,0.651,0.009
16/06/2023,07:52:03,0.588,1.0,0.661,0.01
16/06/2023,07:53:02,0.596,1.0,0.671,0.01
16/06/2023,07:54:02,0.603,1.0,0.681,0.01
16/06/2023,07:55:02,0.610,1.0,0.691,0.01
16/06/2023,07:56:03,0.617,1.0,0.701,0.01
16/06/2023,07:57:02,0.624,1.0,0.712,0.011
16/06/2023,07:58:02,0.630,1.0,0.722,0.01
16/06/2023,07:59:03,0.635,1.0,0.733,0.011
16/06/2023,08:00:02,0.646,1.0,0.743,0.01
16/06/2023,08:01:03,0.651,1.0,0.754,0.011
16/06/2023,08:02:04,0.657,2.0,0.765,0.011
16/06/2023,08:03:03,0.661,2.0,0.776,0.011
16/06/2023,08:04:02,0.669,2.0,0.787,0.011
16/06/2023,08:05:02,0.678,2.0,0.798,0.011
16/06/2023,08:06:02,0.684,2.0,0.81,0.012
16/06/2023,08:07:02,0.692,2.0,0.821,0.011
16/06/2023,08:08:02,0.698,2.0,0.833,0.012
16/06/2023,08:09:03,0.704,2.0,0.844,0.011
16/06/2023,08:10:02,0.711,2.0,0.856,0.012
16/06/2023,08:11:03,0.719,2.0,0.868,0.012
16/06/2023,08:12:01,0.725,2.0,0.88,0.012
16/06/2023,08:13:02,0.735,2.0,0.892,0.012
16/06/2023,08:14:03,0.744,2.0,0.905,0.013
16/06/2023,08:15:02,0.751,2.0,0.917,0.012
16/06/2023,08:16:02,0.761,2.0,0.93,0.013
16/06/2023,08:17:02,0.768,2.0,0.942,0.012
16/06/2023,08:18:03,0.774,2.0,0.955,0.013
16/06/2023,08:19:02,0.779,2.0,0.968,0.013
16/06/2023,08:20:02,0.787,2.0,0.981,0.013
16/06/2023,08:21:02,0.792,2.0,0.994,0.013
16/06/2023,08:22:02,0.800,2.0,1.008,0.014
16/06/2023,08:23:03,0.807,2.0,1.022,0.014
16/06/2023,08:24:02,0.817,2.0,1.035,0.013
16/06/2023,08:25:03,0.825,2.0,1.049,0.014
16/06/2023,08:26:02,0.833,2.0,1.062,0.013
16/06/2023,08:27:02,0.841,2.0,1.076,0.014
16/06/2023,08:28:02,0.851,2.0,1.09,0.014
16/06/2023,08:29:02,0.857,2.0,1.104,0.014
16/06/2023,08:30:02,0.864,2.0,1.119,0.015
16/06/2023,08:31:03,0.872,2.0,1.133,0.014
16/06/2023,08:32:02,0.881,2.0,1.148,0.015
16/06/2023,08:33:02,0.888,2.0,1.163,0.015
16/06/2023,08:34:02,0.895,2.0,1.177,0.014
16/06/2023,08:35:03,0.903,2.0,1.192,0.015
16/06/2023,08:36:02,0.909,2.0,1.208,0.016
16/06/2023,08:37:03,0.918,2.0,1.223,0.015
16/06/2023,08:38:02,0.925,2.0,1.238,0.015
16/06/2023,08:39:03,0.936,2.0,1.254,0.016
16/06/2023,08:40:02,0.945,2.0,1.269,0.015
16/06/2023,08:41:03,0.952,2.0,1.285,0.016
16/06/2023,08:42:02,0.959,2.0,1.301,0.016
16/06/2023,08:43:03,0.966,2.0,1.317,0.016
16/06/2023,08:44:02,0.973,2.0,1.333,0.016
16/06/2023,08:45:02,0.979,2.0,1.349,0.016
16/06/2023,08:46:02,0.986,2.0,1.366,0.017
16/06/2023,08:47:03,0.996,2.0,1.382,0.016
16/06/2023,08:48:02,1.004,2.0,1.399,0.017
16/06/2023,08:49:03,1.011,2.0,1.416,0.017
16/06/2023,08:50:02,1.022,2.0,1.433,0.017
16/06/2023,08:51:02,1.030,2.0,1.45,0.017
16/06/2023,08:52:03,1.038,2.0,1.467,0.017
16/06/2023,08:53:02,1.046,2.0,1.485,0.018
16/06/2023,08:54:03,1.052,2.0,1.502,0.017
16/06/2023,08:55:03,1.059,2.0,1.52,0.018
16/06/2023,08:56:02,1.067,2.0,1.537,0.017
16/06/2023,08:57:02,1.073,2.0,1.555,0.018
16/06/2023,08:58:02,1.083,2.0,1.573,0.018
16/06/2023,08:59:03,1.089,3.0,1.591,0.018
16/06/2023,09:00:02,1.101,3.0,1.61,0.019
16/06/2023,09:01:03,1.108,3.0,1.628,0.018
16/06/2023,09:02:03,1.116,3.0,1.646,0.018
16/06/2023,09:03:02,1.120,3.0,1.665,0.019
16/06/2023,09:04:02,1.128,3.0,1.684,0.019
16/06/2023,09:05:03,1.137,3.0,1.703,0.019
16/06/2023,09:06:02,1.144,3.0,1.722,0.019
16/06/2023,09:07:02,1.152,3.0,1.741,0.019
16/06/2023,09:08:02,1.159,3.0,1.76,0.019
16/06/2023,09:09:03,1.166,3.0,1.78,0.02
16/06/2023,09:10:02,1.172,3.0,1.799,0.019
16/06/2023,09:11:02,1.182,3.0,1.819,0.02
16/06/2023,09:12:03,1.190,3.0,1.838,0.019
16/06/2023,09:13:01,1.205,3.0,1.858,0.02
16/06/2023,09:14:25,1.216,3.0,1.887,0.029
16/06/2023,09:16:03,1.231,3.0,1.919,0.032
16/06/2023,09:17:02,1.238,3.0,1.94,0.021
16/06/2023,09:18:03,1.245,3.0,1.961,0.021
16/06/2023,09:19:02,1.253,3.0,1.981,0.02
16/06/2023,09:20:02,1.261,3.0,2.002,0.021
16/06/2023,09:21:02,1.265,3.0,2.023,0.021
16/06/2023,09:22:03,1.275,3.0,2.045,0.022
16/06/2023,09:23:02,1.284,3.0,2.066,0.021
16/06/2023,09:24:03,1.296,3.0,2.087,0.021
16/06/2023,09:25:02,1.303,3.0,2.109,0.022
16/06/2023,09:26:03,1.306,3.0,2.131,0.022
16/06/2023,09:27:02,1.311,3.0,2.153,0.022
16/06/2023,09:28:02,1.320,3.0,2.175,0.022
16/06/2023,09:29:02,1.330,3.0,2.197,0.022
16/06/2023,09:30:03,1.340,3.0,2.219,0.022
16/06/2023,09:31:02,1.348,3.0,2.241,0.022
16/06/2023,09:32:03,1.355,3.0,2.264,0.023
16/06/2023,09:33:03,1.362,3.0,2.287,0.023
16/06/2023,09:34:02,1.369,3.0,2.309,0.022
16/06/2023,09:35:03,1.377,3.0,2.332,0.023
16/06/2023,09:36:02,1.385,3.0,2.355,0.023
16/06/2023,09:37:03,1.393,3.0,2.378,0.023
16/06/2023,09:38:02,1.404,3.0,2.402,0.024
16/06/2023,09:39:02,1.413,3.0,2.425,0.023
16/06/2023,09:40:03,1.417,3.0,2.449,0.024
16/06/2023,09:41:02,1.423,3.0,2.472,0.023
16/06/2023,09:42:02,1.437,3.0,2.496,0.024
16/06/2023,09:43:02,1.449,3.0,2.52,0.024
16/06/2023,09:44:02,1.461,3.0,2.545,0.025
16/06/2023,09:45:03,1.468,3.0,2.569,0.024
16/06/2023,09:46:02,1.474,3.0,2.593,0.024
16/06/2023,09:47:03,1.484,3.0,2.618,0.025
16/06/2023,09:48:01,1.491,3.0,2.643,0.025
16/06/2023,09:49:03,1.501,3.0,2.668,0.025
16/06/2023,09:50:02,1.505,3.0,2.693,0.025
16/06/2023,09:51:03,1.513,3.0,2.718,0.025
16/06/2023,09:52:03,1.516,3.0,2.743,0.025
16/06/2023,09:53:03,1.518,3.0,2.769,0.026
16/06/2023,09:54:02,1.523,4.0,2.794,0.025
16/06/2023,09:55:03,1.538,4.0,2.819,0.025
16/06/2023,09:56:02,1.548,4.0,2.845,0.026
16/06/2023,09:57:03,1.556,4.0,2.871,0.026
16/06/2023,09:58:02,1.556,4.0,2.897,0.026
16/06/2023,09:59:03,1.554,4.0,2.923,0.026
16/06/2023,10:00:02,1.554,4.0,2.949,0.026